R.E. Bob Woodruff Reservoir Weather Center

Moon Phase Calendar



R.E. Bob Woodruff Reservoir Water Level
Online Cameras

 


      

Current Conditions in Autauga
2/27/2024 5:00:36 AM

63°F
Feels Like 63
Clouds
Humidity
88%
Pressure
29.91"
Wind
5.8 mph (S)
Dew Point
60°F
UV Index
0/10 (Low)
Visibility
6 mi

Hourly Forecast

Date & Time Tue, Feb 27
5:00 AM
Tue, Feb 27
6:00 AM
Tue, Feb 27
7:00 AM
Tue, Feb 27
8:00 AM
Tue, Feb 27
9:00 AM
Tue, Feb 27
10:00 AM
Tue, Feb 27
11:00 AM
Tue, Feb 27
12:00 PM
Tue, Feb 27
1:00 PM
Tue, Feb 27
2:00 PM
Tue, Feb 27
3:00 PM
Tue, Feb 27
4:00 PM
Tue, Feb 27
5:00 PM
Tue, Feb 27
6:00 PM
Tue, Feb 27
7:00 PM
Tue, Feb 27
8:00 PM
Tue, Feb 27
9:00 PM
Tue, Feb 27
10:00 PM
Tue, Feb 27
11:00 PM
Wed, Feb 28
12:00 AM
Wed, Feb 28
1:00 AM
Wed, Feb 28
2:00 AM
Wed, Feb 28
3:00 AM
Wed, Feb 28
4:00 AM
Wed, Feb 28
5:00 AM
Wed, Feb 28
6:00 AM
Wed, Feb 28
7:00 AM
Wed, Feb 28
8:00 AM
Wed, Feb 28
9:00 AM
Wed, Feb 28
10:00 AM
Wed, Feb 28
11:00 AM
Wed, Feb 28
12:00 PM
Wed, Feb 28
1:00 PM
Wed, Feb 28
2:00 PM
Wed, Feb 28
3:00 PM
Wed, Feb 28
4:00 PM
Wed, Feb 28
5:00 PM
Wed, Feb 28
6:00 PM
Wed, Feb 28
7:00 PM
Wed, Feb 28
8:00 PM
Wed, Feb 28
9:00 PM
Wed, Feb 28
10:00 PM
Wed, Feb 28
11:00 PM
Thu, Feb 29
12:00 AM
Thu, Feb 29
1:00 AM
Thu, Feb 29
2:00 AM
Thu, Feb 29
3:00 AM
Thu, Feb 29
4:00 AM
Condition
Clouds

Clouds

Clouds

Clouds

Clouds

Clouds

Clouds

Clouds

Clouds

Clouds

Clouds

Clouds

Clouds

Clouds

Clouds

Clouds

Clouds

Clouds

Clouds

Clouds

Clouds

Clouds

Clouds

Clouds

Clouds

Clouds

Clouds

Clouds

Clouds

Clouds

Clouds

Rain

Rain

Clouds

Clouds

Clouds

Clouds

Clouds

Clouds

Clouds

Clouds

Clouds

Clouds

Clouds

Clouds

Clouds

Clouds

Clouds
Temperature 63°F63°F64°F65°F68°F71°F73°F76°F78°F79°F77°F76°F73°F71°F69°F67°F67°F68°F69°F68°F68°F68°F67°F67°F67°F67°F67°F69°F72°F74°F72°F71°F65°F55°F53°F52°F53°F53°F51°F49°F48°F47°F46°F45°F44°F43°F42°F42°F
Feels Like 63°F63°F64°F65°F68°F71°F73°F76°F78°F79°F77°F76°F73°F71°F69°F68°F68°F68°F69°F69°F68°F68°F67°F67°F67°F67°F68°F70°F72°F74°F73°F71°F65°F54°F51°F50°F51°F50°F48°F45°F44°F42°F41°F40°F39°F38°F37°F36°F
Cloudiness 100%99%96%96%94%93%94%95%100%100%100%100%100%94%40%44%59%67%73%78%99%99%85%86%86%86%100%100%100%100%100%100%100%100%100%100%100%100%100%99%99%100%100%100%100%100%100%100%
Visibility 6 mi6 mi6 mi6 mi6 mi6 mi6 mi6 mi6 mi6 mi6 mi6 mi6 mi6 mi6 mi6 mi6 mi6 mi6 mi6 mi6 mi6 mi6 mi6 mi6 mi6 mi6 mi6 mi6 mi6 mi6 mi6 mi6 mi6 mi6 mi6 mi6 mi6 mi6 mi6 mi6 mi6 mi6 mi6 mi6 mi6 mi6 mi6 mi
Precipitation 0%0%0%0%0%0%0%0%0%0%0%0%0%0%0%0%0%0%0%0%0%0%0%0%0%0%0%0%0%0%1%30%89%89%80%57%42%30%0%0%0%0%0%0%0%0%0%0%
Humidity 88%87%86%84%78%70%64%59%55%55%59%62%66%71%78%83%83%77%75%75%75%76%78%79%80%81%80%78%72%68%73%79%79%78%73%67%61%53%49%48%44%41%41%41%44%46%47%47%
Dew Point 60°F59°F59°F60°F61°F61°F60°F60°F61°F61°F61°F61°F61°F61°F61°F62°F62°F60°F60°F60°F60°F60°F60°F60°F60°F60°F61°F62°F62°F62°F63°F63°F58°F47°F44°F41°F40°F36°F32°F30°F27°F24°F23°F23°F23°F23°F23°F23°F
Pressure 29.91"29.91"29.91"29.94"29.94"29.94"29.94"29.94"29.88"29.88"29.85"29.85"29.85"29.88"29.88"29.91"29.91"29.91"29.91"29.88"29.91"29.88"29.88"29.88"29.88"29.91"29.91"29.94"30"30"30"30"30.06"30.12"30.15"30.21"30.24"30.24"30.27"30.3"30.33"30.36"30.33"30.36"30.36"30.39"30.39"30.39"
Wind Speed 11.7 mph11.5 mph12.3 mph14.1 mph16.1 mph16.7 mph17 mph16.2 mph16.3 mph16 mph16 mph16.6 mph15.9 mph15.2 mph15.3 mph15.1 mph15.8 mph17.1 mph16.8 mph15.6 mph14.4 mph14.3 mph14.4 mph14.3 mph14.2 mph14 mph14.7 mph14.3 mph14.1 mph16 mph14.5 mph12.2 mph17.3 mph17 mph15.7 mph13.2 mph12.4 mph11.8 mph11.3 mph10.8 mph10.6 mph10.1 mph10.8 mph10.2 mph9.6 mph9.8 mph8.8 mph8.6 mph
Wind
Direction
197°
SSW
202°
SSW
202°
SSW
201°
SSW
206°
SSW
207°
SSW
210°
SSW
211°
SSW
210°
SSW
209°
SSW
208°
SSW
205°
SSW
201°
SSW
198°
SSW
194°
SSW
194°
SSW
200°
SSW
201°
SSW
204°
SSW
205°
SSW
206°
SSW
205°
SSW
203°
SSW
204°
SSW
206°
SSW
209°
SSW
210°
SSW
216°
SW
236°
SW
236°
SW
246°
WSW
251°
WSW
309°
NW
332°
NNW
344°
NNW
352°
N

N

N
10°
N
11°
N
16°
NNE
13°
NNE
22°
NNE
12°
NNE
17°
NNE
22°
NNE
24°
NNE
30°
NNE

Daily Forecast

Date High Low Precip. Humidity
Today
Feb 27

Clouds
79 °F
60 °F
0%
64%
Wednesday
Feb 28

Rain
74 °F
46 °F
89%
73%
Thursday
Feb 29

Clouds
58 °F
40 °F
0%
30%
Friday
Mar 1

Rain
61 °F
51 °F
100%
86%
Saturday
Mar 2

Rain
70 °F
59 °F
39%
80%
Sunday
Mar 3

Rain
75 °F
59 °F
93%
59%
Monday
Mar 4

Rain
67 °F
62 °F
100%
95%
Tuesday
Mar 5

Rain
65 °F
49 °F
100%
85%
Wednesday
Mar 6

Clouds
68 °F
39 °F
0%
54%
Thursday
Mar 7

Rain
66 °F
59 °F
100%
94%
Friday
Mar 8

Rain
74 °F
60 °F
100%
85%
Saturday
Mar 9

Clouds
63 °F
49 °F
10%
51%
Sunday
Mar 10

Clouds
67 °F
45 °F
0%
50%
Monday
Mar 11

Clouds
72 °F
50 °F
0%
60%
Tuesday
Mar 12

Clouds
72 °F
58 °F
0%
61%
Wednesday
Mar 13

Rain
60 °F
59 °F
100%
94%

Temperature 8-14 Day Outlook



Precipitation 8-14 Day Outlook




Quick Links
R.E. Bob Woodruff Reservoir News
R.E. Bob Woodruff Reservoir Photos
R.E. Bob Woodruff Reservoir Videos




About Us
Contact Us
Site Map
Search Site
Advertise With Us
   
Woodruff.USLakes.info
THE R.E. BOB WOODRUFF RESERVOIR WEBSITE

Copyright 2024, Lakes Online
Privacy    |    Legal